Retour au catalogue

GLOBALSTAR M077

ActifCommunicationsLEO
NORAD 37191·PAYLOAD·🇺🇸 United States

Lancé Oct 19, 2010 depuis Baikonur Cosmodrome

Loading…

Prochains Passages (prochaines 24 heures)

TLE

FraisSource: Space-Track

Époque: Sep 14, 2026, 14:41 UTC

1 37191U 10054D   26257.61241488 -.00000077  00000-0  21712-4 0  9999
2 37191  51.9978 312.3240 0002541 345.2279 182.5660 11.67547995731587

Suivez GLOBALSTAR M077 en temps réel avec AllMySat

Download on the App Store